When you browse on this site, cookies collect data to enhance your experience and personalize the content and advertising you see.
Visit our Privacy Policy to learn more. By continuing to use the site, you agree to this use of cookies and data.

Hourly Weather Chetumal

Today, 9 August, Sunday

Time Temperature Precipitation Wind Pressure Humidity
00:00 +27°C° 0 mm 3 mps 760 mmHg 92%
01:00 +27°C° 0 mm 3 mps 760 mmHg 93%
02:00 +27°C° 0 mm 3 mps 759 mmHg 93%
03:00 +27°C° 0 mm 3 mps 759 mmHg 93%
04:00 +27°C° 0.1 mm 2 mps 759 mmHg 94%
05:00 +27°C° 0.1 mm 2 mps 759 mmHg 94%
06:00 +27°C° 0.1 mm 2 mps 760 mmHg 94%
07:00 +28°C° 0.4 mm 2 mps 760 mmHg 91%
08:00 +29°C° 0.4 mm 3 mps 760 mmHg 87%
09:00 +31°C° 0.4 mm 3 mps 761 mmHg 84%
10:00 +31°C° 1.1 mm 3 mps 761 mmHg 83%
11:00 +31°C° 1.1 mm 3 mps 760 mmHg 82%
12:00 +31°C° 1.1 mm 3 mps 760 mmHg 81%
13:00 +31°C° 1.1 mm 3 mps 760 mmHg 82%
14:00 +31°C° 1.1 mm 3 mps 759 mmHg 82%
15:00 +31°C° 1.1 mm 3 mps 758 mmHg 82%
16:00 +30°C° 0.7 mm 3 mps 759 mmHg 85%
17:00 +29°C° 0.7 mm 3 mps 759 mmHg 88%
18:00 +29°C° 0.7 mm 2 mps 759 mmHg 90%
19:00 +28°C° 0 mm 3 mps 759 mmHg 91%
20:00 +28°C° 0 mm 3 mps 760 mmHg 93%
21:00 +27°C° 0 mm 3 mps 760 mmHg 94%
22:00 +27°C° 0 mm 3 mps 760 mmHg 94%
23:00 +27°C° 0 mm 3 mps 760 mmHg 94%

Tomorrow, 10 August, Monday

Time Temperature Precipitation Wind Pressure Humidity
00:00 +27°C° 0 mm 3 mps 760 mmHg 94%
01:00 +27°C° 0 mm 3 mps 759 mmHg 94%
02:00 +27°C° 0 mm 3 mps 759 mmHg 94%
03:00 +27°C° 0 mm 2 mps 758 mmHg 94%
04:00 +27°C° 0 mm 2 mps 758 mmHg 94%
05:00 +27°C° 0 mm 2 mps 758 mmHg 95%
06:00 +27°C° 0 mm 2 mps 758 mmHg 95%
07:00 +29°C° 0.2 mm 3 mps 759 mmHg 88%
08:00 +30°C° 0.2 mm 3 mps 759 mmHg 82%
09:00 +33°C° 0.2 mm 3 mps 760 mmHg 76%
10:00 +33°C° 0.4 mm 4 mps 760 mmHg 74%
11:00 +34°C° 0.4 mm 4 mps 760 mmHg 73%
12:00 +34°C° 0.4 mm 4 mps 759 mmHg 71%
13:00 +34°C° 1.9 mm 3 mps 759 mmHg 73%
14:00 +33°C° 1.9 mm 3 mps 758 mmHg 75%
15:00 +33°C° 1.9 mm 3 mps 757 mmHg 77%
16:00 +31°C° 0.7 mm 3 mps 757 mmHg 81%
17:00 +30°C° 0.7 mm 2 mps 758 mmHg 85%
18:00 +29°C° 0.7 mm 2 mps 758 mmHg 89%
19:00 +28°C° 0 mm 2 mps 758 mmHg 91%
20:00 +28°C° 0 mm 2 mps 758 mmHg 92%
21:00 +27°C° 0 mm 2 mps 759 mmHg 93%
22:00 +27°C° 0 mm 2 mps 759 mmHg 94%
23:00 +27°C° 0 mm 2 mps 759 mmHg 95%

Day after tomorrow, 11 August, Tuesday

Time Temperature Precipitation Wind Pressure Humidity
00:00 +27°C° 0 mm 2 mps 759 mmHg 96%
01:00 +27°C° 0 mm 2 mps 758 mmHg 96%
02:00 +27°C° 0 mm 2 mps 758 mmHg 96%
03:00 +27°C° 0 mm 2 mps 757 mmHg 96%
04:00 +27°C° 0 mm 2 mps 757 mmHg 96%
05:00 +27°C° 0 mm 1 mps 757 mmHg 96%
06:00 +27°C° 0 mm 1 mps 757 mmHg 95%
07:00 +29°C° 0.1 mm 1 mps 758 mmHg 89%
08:00 +30°C° 0.1 mm 1 mps 758 mmHg 82%
09:00 +32°C° 0.1 mm 2 mps 759 mmHg 75%
10:00 +32°C° 0.6 mm 2 mps 758 mmHg 74%
11:00 +32°C° 0.6 mm 2 mps 758 mmHg 73%
12:00 +34°C° 0.6 mm 2 mps 758 mmHg 73%
13:00 +34°C° 0.1 mm 2 mps 758 mmHg 68%
14:00 +35°C° 0.1 mm 2 mps 757 mmHg 63%
15:00 +35°C° 0.1 mm 3 mps 756 mmHg 58%
16:00 +34°C° 0.1 mm 3 mps 756 mmHg 66%
17:00 +31°C° 0.1 mm 3 mps 756 mmHg 74%
18:00 +30°C° 0.1 mm 3 mps 757 mmHg 82%
19:00 +29°C° 0 mm 3 mps 757 mmHg 85%
20:00 +28°C° 0 mm 2 mps 758 mmHg 89%
21:00 +28°C° 0 mm 2 mps 758 mmHg 92%
22:00 +27°C° 0 mm 2 mps 758 mmHg 93%
23:00 +27°C° 0 mm 2 mps 758 mmHg 94%

12 August, Wednesday

Time Temperature Precipitation Wind Pressure Humidity
00:00 +27°C° 0 mm 2 mps 758 mmHg 95%
01:00 +27°C° 0 mm 2 mps 757 mmHg 95%
02:00 +27°C° 0 mm 2 mps 757 mmHg 95%
03:00 +27°C° 0 mm 1 mps 757 mmHg 95%
04:00 +27°C° 0.1 mm 2 mps 757 mmHg 95%
05:00 +27°C° 0.1 mm 2 mps 757 mmHg 96%
06:00 +27°C° 0.1 mm 2 mps 757 mmHg 96%
07:00 +28°C° 0 mm 2 mps 757 mmHg 87%
08:00 +30°C° 0 mm 3 mps 758 mmHg 78%
09:00 +33°C° 0 mm 3 mps 758 mmHg 70%
10:00 +33°C° 0.1 mm 3 mps 758 mmHg 67%
11:00 +34°C° 0.1 mm 3 mps 758 mmHg 64%
12:00 +35°C° 0.1 mm 4 mps 758 mmHg 61%
13:00 +34°C° 0.6 mm 3 mps 757 mmHg 64%
14:00 +34°C° 0.6 mm 3 mps 757 mmHg 66%
15:00 +33°C° 0.6 mm 3 mps 756 mmHg 69%
16:00 +31°C° 0.2 mm 3 mps 756 mmHg 74%
17:00 +30°C° 0.2 mm 3 mps 756 mmHg 78%
18:00 +29°C° 0.2 mm 2 mps 757 mmHg 83%
19:00 +28°C° 0 mm 2 mps 757 mmHg 86%
20:00 +28°C° 0 mm 2 mps 758 mmHg 89%
21:00 +27°C° 0 mm 2 mps 758 mmHg 93%
22:00 +27°C° 0 mm 2 mps 758 mmHg 93%
23:00 +27°C° 0 mm 2 mps 758 mmHg 93%

13 August, Thursday

Time Temperature Precipitation Wind Pressure Humidity
00:00 +27°C° 0 mm 2 mps 757 mmHg 94%
01:00 +27°C° 0 mm 1 mps 757 mmHg 94%
02:00 +26°C° 0 mm 1 mps 757 mmHg 94%
03:00 +26°C° 0 mm 1 mps 757 mmHg 94%
04:00 +26°C° 0.4 mm 2 mps 757 mmHg 95%
05:00 +26°C° 0.4 mm 2 mps 757 mmHg 95%
06:00 +26°C° 0.4 mm 2 mps 757 mmHg 96%
07:00 +27°C° 1.3 mm 2 mps 758 mmHg 91%
08:00 +29°C° 1.3 mm 2 mps 758 mmHg 86%
09:00 +30°C° 1.3 mm 2 mps 758 mmHg 82%
10:00 +30°C° 1 mm 3 mps 758 mmHg 82%
11:00 +30°C° 1 mm 3 mps 758 mmHg 83%
12:00 +31°C° 1 mm 3 mps 757 mmHg 83%
13:00 +31°C° 0.4 mm 3 mps 757 mmHg 80%
14:00 +31°C° 0.4 mm 2 mps 757 mmHg 76%
15:00 +32°C° 0.4 mm 2 mps 756 mmHg 72%
16:00 +31°C° 0 mm 2 mps 756 mmHg 76%
17:00 +30°C° 0 mm 2 mps 756 mmHg 79%
18:00 +29°C° 0 mm 2 mps 756 mmHg 82%
19:00 +28°C° 0 mm 2 mps 757 mmHg 85%
20:00 +28°C° 0 mm 2 mps 758 mmHg 88%
21:00 +27°C° 0 mm 2 mps 758 mmHg 91%
22:00 +27°C° 0 mm 2 mps 758 mmHg 91%
23:00 +27°C° 0 mm 1 mps 758 mmHg 92%

14 August, Friday

Time Temperature Precipitation Wind Pressure Humidity
00:00 +26°C° 0 mm 1 mps 758 mmHg 92%
01:00 +26°C° 0 mm 1 mps 757 mmHg 93%
02:00 +26°C° 0 mm 1 mps 757 mmHg 93%
03:00 +26°C° 0 mm 1 mps 757 mmHg 94%
04:00 +26°C° 0.2 mm 1 mps 757 mmHg 94%
05:00 +26°C° 0.2 mm 1 mps 757 mmHg 94%
06:00 +26°C° 0.2 mm 1 mps 757 mmHg 95%
07:00 +28°C° 0.1 mm 1 mps 758 mmHg 86%
08:00 +30°C° 0.1 mm 2 mps 758 mmHg 77%
09:00 +32°C° 0.1 mm 2 mps 758 mmHg 69%
10:00 +32°C° 0 mm 2 mps 758 mmHg 65%
11:00 +34°C° 0 mm 2 mps 757 mmHg 61%
12:00 +35°C° 0 mm 2 mps 757 mmHg 56%
13:00 +35°C° 0 mm 2 mps 757 mmHg 54%
14:00 +35°C° 0 mm 3 mps 756 mmHg 52%
15:00 +35°C° 0 mm 3 mps 755 mmHg 49%
16:00 +34°C° 0 mm 3 mps 756 mmHg 58%
17:00 +31°C° 0 mm 3 mps 756 mmHg 66%
18:00 +29°C° 0 mm 3 mps 756 mmHg 75%
19:00 +28°C° 0 mm 2 mps 757 mmHg 79%
20:00 +27°C° 0 mm 2 mps 757 mmHg 84%
21:00 +26°C° 0 mm 2 mps 758 mmHg 88%
22:00 +26°C° 0.1 mm 2 mps 758 mmHg 89%
23:00 +26°C° 0.1 mm 2 mps 757 mmHg 90%
Show more